TimeMST,TemperatureF,Dew PointF,Humidity,Sea Level PressureIn,VisibilityMPH,Wind Direction,Wind SpeedMPH,Gust SpeedMPH,PrecipitationIn,Events,Conditions,WindDirDegrees,DateUTC
12:53 AM,36.0,19.9,52,29.76,10.0,West,23.0,32.2,N/A,,Clear,280,2012-12-03 07:53:00
1:53 AM,33.1,19.9,59,29.83,10.0,WSW,18.4,24.2,N/A,,Clear,250,2012-12-03 08:53:00
2:53 AM,36.0,18.0,48,29.89,10.0,West,23.0,35.7,N/A,,Clear,260,2012-12-03 09:53:00
3:53 AM,36.0,18.0,48,29.92,10.0,West,19.6,26.5,N/A,,Partly Cloudy,270,2012-12-03 10:53:00
4:53 AM,35.1,18.0,50,29.87,10.0,WSW,31.1,41.4,N/A,,Clear,250,2012-12-03 11:53:00
5:53 AM,34.0,19.0,54,29.90,10.0,West,29.9,38.0,N/A,,Clear,270,2012-12-03 12:53:00
6:53 AM,36.0,17.1,46,29.97,10.0,WSW,25.3,36.8,N/A,,Clear,240,2012-12-03 13:53:00
7:53 AM,35.1,18.0,50,29.99,10.0,SW,28.8,40.3,N/A,,Clear,230,2012-12-03 14:53:00
8:53 AM,37.0,18.0,46,29.96,10.0,SSW,42.6,50.6,N/A,,Clear,210,2012-12-03 15:53:00
9:53 AM,39.0,19.9,46,29.98,10.0,SW,44.9,54.1,N/A,,Clear,220,2012-12-03 16:53:00
10:53 AM,41.0,19.9,43,29.99,10.0,SW,34.5,49.5,N/A,,Clear,220,2012-12-03 17:53:00
11:53 AM,44.1,21.0,40,29.99,10.0,SW,26.5,40.3,N/A,,Scattered Clouds,230,2012-12-03 18:53:00
12:53 PM,43.0,19.0,38,29.98,10.0,SW,33.4,41.4,N/A,,Partly Cloudy,220,2012-12-03 19:53:00
1:53 PM,43.0,18.0,37,30.02,10.0,SW,27.6,40.3,N/A,,Clear,230,2012-12-03 20:53:00
2:53 PM,42.1,19.0,40,30.01,10.0,SW,28.8,38.0,N/A,,Scattered Clouds,230,2012-12-03 21:53:00
3:53 PM,42.1,19.0,40,30.03,10.0,SW,33.4,43.7,N/A,,Overcast,230,2012-12-03 22:53:00
4:53 PM,39.9,18.0,41,30.05,10.0,SW,29.9,43.7,N/A,,Partly Cloudy,230,2012-12-03 23:53:00
5:53 PM,39.9,18.0,41,30.07,10.0,SW,33.4,47.2,N/A,,Clear,230,2012-12-04 00:53:00
6:53 PM,39.0,18.0,43,30.10,10.0,SW,26.5,47.2,N/A,,Clear,230,2012-12-04 01:53:00
7:53 PM,39.9,17.1,40,30.09,10.0,SW,34.5,50.6,N/A,,Clear,220,2012-12-04 02:53:00
8:53 PM,39.0,17.1,41,30.13,10.0,SW,27.6,42.6,N/A,,Clear,230,2012-12-04 03:53:00
9:53 PM,39.0,18.0,43,30.13,10.0,SW,32.2,41.4,N/A,,Clear,230,2012-12-04 04:53:00
11:53 PM,37.9,19.0,47,30.14,10.0,WSW,18.4,32.2,N/A,,Clear,250,2012-12-04 06:53:00